GW6950 Weather Reports


time (UTC)temp
C
wind
direction
speed
KPH
gust
KPH
rain 1hr
cm
rain 24hr
cm
rain mn
cm
humidity
%
barometer
mb
20260507030128 13 238 4.8 14.5 0.00 0.00 0.00 80 1020.1
20260507025126 13 249 3.2 6.4 0.00 0.00 0.00 80 1020.3
20260507024125 13 248 1.6 9.7 0.00 0.00 0.00 79 1020.0
20260507023125 13 231 3.2 6.4 0.00 0.00 0.00 79 1020.0
20260507022123 13 244 1.6 6.4 0.00 0.00 0.00 78 1020.1
20260507021121 13 238 0.0 6.4 0.00 0.00 0.00 79 1020.0
20260507020120 13 235 3.2 11.3 0.00 0.00 0.00 79 1020.3
20260507015119 13 221 4.8 17.7 0.00 0.00 0.00 79 1020.1
20260507014118 13 187 4.8 20.9 0.00 0.00 0.00 79 1020.2
20260507013114 13 242 3.2 12.9 0.00 0.00 0.00 79 1020.3
20260507012114 13 249 6.4 25.7 0.00 0.00 0.00 77 1020.0
20260507011559 13 253 8.0 20.9 0.00 0.00 0.00 78 1020.4
20260507010112 13 275 8.0 22.5 0.00 0.00 0.00 78 1020.2
20260507005111 13 244 8.0 14.5 0.00 0.00 0.00 79 1020.3
20260507004110 13 239 4.8 12.9 0.00 0.00 0.00 78 1020.2
20260507003108 13 225 4.8 16.1 0.00 0.00 0.00 77 1020.1
20260507002102 13 262 4.8 12.9 0.00 0.00 0.00 77 1020.4
20260507001544 13 259 4.8 12.9 0.00 0.00 0.00 77 1020.3
20260507000101 14 258 3.2 11.3 0.00 0.00 0.00 77 1020.3
20260506235058 14 255 3.2 9.7 0.00 0.00 0.00 76 1020.3
20260506234057 13 240 3.2 9.7 0.00 0.00 0.00 76 1020.3
20260506233055 13 252 3.2 4.8 0.00 0.00 0.00 77 1020.3
20260506232053 13 236 1.6 11.3 0.00 0.00 0.00 78 1020.5
20260506231526 13 224 3.2 12.9 0.00 0.00 0.00 78 1020.5
20260506230527 13 233 6.4 14.5 0.00 0.00 0.00 79 1020.6
20260506225047 13 191 4.8 12.9 0.00 0.00 0.00 80 1020.4
20260506224030 13 256 4.8 14.5 0.00 0.00 0.00 79 1020.5
20260506223030 13 236 6.4 11.3 0.00 0.00 0.00 80 1020.6
20260506222029 13 228 3.2 16.1 0.00 0.00 0.00 80 1020.6
20260506221030 13 273 6.4 9.7 0.00 0.00 0.00 80 1020.8
20260506214029 13 254 3.2 16.1 0.00 0.00 0.00 80 1020.9
20260506213509 13 255 9.7 14.5 0.00 0.00 0.00 79 1020.6
20260506212028 13 252 4.8 12.9 0.00 0.00 0.00 79 1020.8
20260506211510 13 241 4.8 11.3 0.00 0.00 0.00 78 1020.8
20260506210025 13 237 4.8 11.3 0.00 0.00 0.00 79 1020.8
20260506205022 13 237 4.8 14.5 0.00 0.00 0.00 77 1020.6
20260506204002 13 208 1.6 12.9 0.00 0.00 0.00 79 1020.8
20260506203001 13 229 8.0 12.9 0.00 0.00 0.00 78 1020.7
20260506202000 13 242 0.0 11.3 0.00 0.00 0.00 79 1020.8
20260506201002 13 256 4.8 11.3 0.00 0.00 0.00 78 1020.5
20260506200003 13 253 3.2 11.3 0.00 0.00 0.00 79 1020.7
20260506195002 13 249 1.6 12.9 0.00 0.00 0.00 78 1020.6
20260506194001 12 234 3.2 11.3 0.00 0.00 0.00 79 1020.3
20260506193003 12 261 4.8 14.5 0.00 0.00 0.00 79 1020.5
20260506192001 12 251 6.4 17.7 0.00 0.00 0.00 80 1020.4
20260506191001 12 240 6.4 17.7 0.00 0.00 0.00 77 1020.5
20260506190449 12 233 3.2 17.7 0.00 0.00 0.00 77 1020.4
20260506184957 12 225 1.6 14.5 0.00 0.00 0.00 79 1020.5
20260506183956 12 253 4.8 17.7 0.00 0.00 0.00 80 1020.4
20260506182954 12 290 8.0 17.7 0.00 0.00 0.00 78 1020.4
20260506181952 12 278 6.4 16.1 0.00 0.00 0.00 77 1020.4
20260506181430 12 234 3.2 16.1 0.00 0.00 0.00 79 1020.6
20260506175950 12 224 3.2 16.1 0.00 0.00 0.00 78 1020.1
20260506174930 12 239 8.0 12.9 0.00 0.00 0.00 79 1020.1
20260506173929 12 204 6.4 11.3 0.00 0.00 0.00 78 1020.1
20260506172929 12 246 3.2 11.3 0.00 0.00 0.00 80 1020.0
20260506171930 12 240 0.0 12.9 0.00 0.00 0.00 79 1020.1
20260506170929 12 247 3.2 11.3 0.00 0.00 0.00 80 1020.2
20260506165930 12 254 1.6 14.5 0.00 0.00 0.00 80 1020.1
20260506164929 12 228 4.8 11.3 0.00 0.00 0.00 79 1020.4
20260506163929 12 254 3.2 6.4 0.00 0.00 0.00 79 1020.1
20260506162931 12 264 3.2 12.9 0.00 0.00 0.00 78 1020.1
20260506161930 12 231 8.0 14.5 0.00 0.00 0.00 78 1020.0
20260506160929 12 258 6.4 14.5 0.00 0.00 0.00 79 1020.1
20260506160406 12 250 3.2 14.5 0.00 0.00 0.00 80 1020.0
20260506154927 12 242 3.2 12.9 0.00 0.00 0.00 83 1019.5
20260506154359 12 246 3.2 11.3 0.00 0.00 0.00 83 1019.8
20260506152926 12 252 6.4 11.3 0.00 0.00 0.00 84 1019.8
20260506151924 11 263 3.2 6.4 0.00 0.00 0.00 85 1019.7
20260506150922 11 268 1.6 11.3 0.00 0.00 0.00 85 1019.6
20260506145922 11 273 0.0 9.7 0.00 0.00 0.00 87 1019.6
20260506145359 11 258 3.2 6.4 0.00 0.00 0.00 87 1019.6
20260506143921 11 253 0.0 6.4 0.00 0.00 0.00 87 1019.5
20260506142917 11 259 0.0 6.4 0.00 0.00 0.00 88 1019.7
20260506141917 11 251 0.0 9.7 0.00 0.00 0.00 88 1019.5
20260506140916 11 252 1.6 4.8 0.00 0.00 0.00 89 1019.4
20260506135902 11 244 0.0 1.6 0.00 0.00 0.00 89 1019.3
20260506134902 11 214 0.0 3.2 0.00 0.00 0.00 90 1019.2
20260506133901 11 214 0.0 3.2 0.00 0.00 0.00 90 1019.1
20260506132902 11 214 0.0 3.2 0.00 0.00 0.00 90 1019.1
20260506131902 11 202 0.0 3.2 0.00 0.00 0.00 90 1018.9
20260506130901 11 246 0.0 3.2 0.00 0.00 0.00 90 1019.2
20260506125901 11 248 0.0 3.2 0.00 0.00 0.00 89 1019.0
20260506124901 11 241 0.0 4.8 0.00 0.00 0.00 87 1018.8
20260506123859 11 253 0.0 11.3 0.00 0.00 0.00 87 1018.7
20260506122854 11 253 0.0 3.2 0.00 0.00 0.00 87 1018.7
20260506121854 11 254 0.0 14.5 0.00 0.00 0.00 88 1018.7
20260506120853 11 240 4.8 14.5 0.00 0.00 0.00 87 1018.8
20260506115850 11 256 6.4 12.9 0.00 0.00 0.00 89 1018.7
20260506114847 12 245 1.6 9.7 0.00 0.00 0.00 88 1018.5
20260506113846 11 258 3.2 11.3 0.00 0.00 0.00 87 1018.6
20260506112844 11 246 0.0 9.7 0.00 0.00 0.00 88 1018.5
20260506111843 12 255 1.6 12.9 0.00 0.00 0.00 88 1018.2
20260506110842 12 258 3.2 9.7 0.00 0.00 0.00 87 1018.1
20260506105841 12 256 4.8 14.5 0.00 0.00 0.00 87 1018.2
20260506104842 12 265 9.7 14.5 0.00 0.00 0.00 87 1018.2
20260506103839 12 262 6.4 12.9 0.00 0.00 0.00 87 1018.0
20260506102838 12 263 6.4 11.3 0.00 0.00 0.00 88 1018.2
20260506101837 12 238 6.4 14.5 0.00 0.00 0.00 87 1018.2
20260506101311 12 252 6.4 12.9 0.00 0.00 0.00 86 1018.1
20260506095829 12 274 8.0 14.5 0.00 0.00 0.00 86 1018.0
20260506094828 12 251 8.0 14.5 0.00 0.00 0.00 86 1017.7
20260506094318 12 264 6.4 12.9 0.00 0.00 0.00 87 1017.9
20260506092802 12 260 0.0 11.3 0.00 0.00 0.00 87 1017.7
20260506091802 12 282 3.2 12.9 0.00 0.00 0.00 86 1017.7
20260506090801 12 256 3.2 6.4 0.00 0.00 0.00 86 1017.6
20260506090243 12 243 4.8 11.3 0.00 0.00 0.00 86 1017.6
20260506084802 12 253 4.8 11.3 0.00 0.00 0.00 86 1017.6
20260506083802 12 232 4.8 12.9 0.00 0.00 0.00 87 1017.6
20260506081803 12 246 4.8 16.1 0.00 0.00 0.00 85 1017.4
20260506080801 12 230 1.6 11.3 0.00 0.00 0.00 85 1017.2
20260506072801 12 271 4.8 17.7 0.00 0.00 0.00 85 1016.9
20260506071801 12 249 9.7 17.7 0.00 0.00 0.00 86 1016.9
20260506070803 12 264 8.0 16.1 0.00 0.00 0.00 85 1016.7
20260506061801 12 250 3.2 16.1 0.00 0.00 0.00 82 1016.5
20260506060801 13 246 4.8 14.5 0.00 0.00 0.00 82 1016.5
20260506050801 13 261 6.4 12.9 0.00 0.00 0.00 81 1016.2
20260506044802 14 271 6.4 14.5 0.00 0.00 0.00 80 1015.8
20260506043801 14 265 9.7 14.5 0.00 0.00 0.00 78 1016.0
20260506042801 14 230 6.4 14.5 0.00 0.00 0.00 78 1016.0
20260506041759 14 263 8.0 14.5 0.00 0.00 0.00 78 1015.8
20260506040755 15 245 9.7 17.7 0.00 0.00 0.00 76 1015.8
20260506040234 15 245 6.4 22.5 0.00 0.00 0.00 75 1015.7
20260506034754 15 259 4.8 14.5 0.00 0.00 0.00 75 1015.6
20260506033752 15 264 8.0 11.3 0.00 0.00 0.00 74 1015.4
20260506033228 16 254 3.2 9.7 0.00 0.00 0.00 73 1015.4
20260506031752 16 233 0.0 6.4 0.00 0.00 0.00 72 1015.1
20260506030749 16 239 1.6 9.7 0.00 0.00 0.00 71 1015.2